Flag for Canada Weather past 2 weeks in Aklavik, Northwest Territories, Canada

Now
57 °F

Scattered clouds.


Feels Like: 57 °F
Forecast: 54 / 66 °F
Wind: No wind

Location: Inuvik

Current Time: Jul 3, 2015 at 2:20:28 AM

Latest Report: Jul 3, 2015 at 2:00 AM


Visibility: 15 mi

Pressure: 29.83 "Hg

Humidity: 88%

Dew point: 54 °F

Location of AklavikLocation

Historic Weather in Aklavik — Graph

°F

Aklavik temperature yesterday

Maximum temperature yesterday: 73 °F (at 4:00 PM)
Minimum temperature yesterday: 57 °F (at 4:00 AM)
Average temperature yesterday: 63 °F

Past Weeks' High & Low Weather Summary

 TemperatureHumidityPressure
High81 °F (Jun 22, 1:00 PM)100% (Jun 28, 4:00 AM)30.09 "Hg (Jun 28, 4:00 AM)
Low39 °F (Jun 18, 4:00 AM)27% (Jun 21, 10:00 PM)29.57 "Hg (Jun 25, 8:00 PM)
Average62 °F63%29.84 "Hg
* Reported Jun 18 1:00 AM — Jul 3 1:00 AM, Aklavik, Weather by CustomWeather, © 2015

Note: Actual official high and low records may vary slightly from our data, if they occured in-between our weather recording intervals... More about our weather records

Advertising

Aklavik weather history for previous 24 hours

 ConditionsComfort  
Time TempWeatherWind HumidityBarometerVisibility
1:00 AM
Fri, Jul 3
59 °FScattered clouds.2 mph88%29.82 "Hg15 mi
12:00 AM59 °FSprinkles. Partly sunny.3 mph94%29.80 "Hg15 mi
11:00 PM
Thu, Jul 2
59 °FSprinkles. Partly sunny.5 mph94%29.80 "Hg15 mi
10:00 PM59 °FSprinkles. Mostly cloudy.No wind94%29.78 "Hg15 mi
9:00 PM59 °FSprinkles. More clouds than sun.6 mph88%29.80 "Hg15 mi
8:00 PM63 °FThunderstorms. Mostly cloudy.10 mph73%29.81 "Hg15 mi
7:00 PM64 °FThunderstorms. Mostly cloudy.7 mph68%29.80 "Hg15 mi
6:00 PM73 °FScattered showers. Broken clouds.8 mph47%29.77 "Hg15 mi
5:00 PM73 °FScattered clouds.10 mph50%29.75 "Hg15 mi
4:00 PM73 °FScattered clouds.8 mph50%29.77 "Hg15 mi
3:00 PM70 °FScattered clouds.8 mph64%29.79 "Hg15 mi
2:00 PM68 °FScattered clouds.9 mph69%29.80 "Hg15 mi
1:00 PM64 °FPassing clouds.8 mph73%29.82 "Hg15 mi
12:00 PM64 °FPassing clouds.6 mph73%29.83 "Hg15 mi
11:00 AM63 °FPassing clouds.3 mph77%29.84 "Hg15 mi
10:00 AM61 °FScattered clouds.3 mph77%29.85 "Hg15 mi
9:00 AM59 °FPartly sunny.5 mph82%29.86 "Hg12 mi
8:00 AM57 °FPartly sunny.7 mph88%29.87 "Hg15 mi
7:00 AM57 °FPartly sunny.6 mph88%29.87 "Hg10 mi
6:00 AM57 °FLow clouds.5 mph94%29.88 "Hg10 mi
5:00 AM57 °FLow clouds.3 mph94%29.88 "Hg10 mi
4:00 AM57 °FPartly sunny.6 mph94%29.88 "Hg10 mi
3:00 AM59 °FScattered clouds.5 mph94%29.88 "Hg10 mi
2:00 AM61 °FScattered clouds.6 mph88%29.87 "Hg10 mi
Weather by CustomWeather, © 2015

See weather overviewHow to use our weather pages